Location: Winthrop
(48.4780°N, 120.1850°W)
Time: 18:05:22
(UTC-07:00)

Explorer 7 - Pass Details

Date: 02 February 2023
Orbit: 478 x 657 km, 50.3° (Epoch: 30 March)

Event Time Altitude Azimuth Distance (km) Brightness Sun altitude
Rises 14:33:03 0° 268° (W) 2,754 10.9 17.9°
Reaches altitude 10° 14:35:15 10° 271° (W) 1,889 10.1 17.7°
Maximum altitude 14:39:35 70° 355° (N) 644 7.3 17.3°
Drops below altitude 10° 14:44:11 10° 80° (E) 2,003 9.3 16.8°
Sets 14:46:34 0° 83° (E) 2,935 10.1 16.6°
